Regional Weather Roundup
Issued by NWS Northern Indiana

Home | Current Version | Previous Version | Graphics & Text | Print | Product List | Glossary On
Versions: 1 2 3 4 5 6 7 8 9 10 11 12 13 14 15 16 17 18 19 20 21 22 23 24 25 26 27 28 29 30 31 32 33 34 35 36 37 38 39 40 41 42 43 44 45 46 47 48 49 50
000
ASUS43 KIWX 271400
RWRIWX

KIWX WEATHER ROUNDUP
NATIONAL WEATHER SERVICE NORTHERN INDIANA
900 AM EST THU NOV 27 2014

NOTE: "FAIR" INDICATES FEW OR NO CLOUDS BELOW 12,000 FEET WITH NO
SIGNIFICANT WEATHER AND/OR OBSTRUCTIONS TO VISIBILITY.

* THESE STATIONS ARE NOT UNDER NWS QUALITY CONTROL. THEY ALSO MAY NOT
  REPORT WEATHER SUCH AS PRECIPITATION OR FOG.

INZ001>027-271500-
NORTHERN INDIANA

CITY           SKY/WX    TMP DP  RH WIND       PRES   REMARKS
GARY*          CLOUDY    27  21  80 W14       30.29R WCI  15
SOUTH BEND     LGT SNOW  29  27  92 W7        30.22R VSB 1   WCI  22
GOSHEN         LGT SNOW  29  25  85 W7        30.21R FOG     WCI  22
ANGOLA*        MOSUNNY   27  21  80 W5        30.18R WCI  21
FORT WAYNE     PTSUNNY   28  23  81 W9        30.22R WCI  19
PERU/GRISSOM   LGT SNOW  28  28 100 W9        30.24R FOG     WCI  20

$$
INZ028>050-271500-
CENTRAL INDIANA

CITY           SKY/WX    TMP DP  RH WIND       PRES   REMARKS
LAFAYETTE      CLOUDY    26  22  84 W12       30.29R FOG     WCI  16
KOKOMO*        CLOUDY    28  25  86 W10       30.25R WCI  19
MUNCIE*        CLOUDY    28  22  78 W8        30.23R WCI  20
INDIANAPOLIS   CLOUDY    27  22  81 W8        30.27R FOG     WCI  19

$$
MIZ043>046-050>051-056>058-064>065-071>073-077>080-271500-
SOUTHWEST LOWER MICHIGAN

CITY           SKY/WX    TMP DP  RH WIND       PRES   REMARKS
BATTLE CREEK   CLOUDY    29  22  75 W7        30.18R WCI  22
BENTON HARBOR  CLOUDY    31  23  72 NW13G22   30.22R WCI  21
COLDWATER*     CLOUDY    29  25  84 W5        30.18R WCI  24
HILLSDALE*     PTSUNNY   29  23  79 W9        30.15R WCI  20
HOLLAND        LGT SNOW  30  27  88 CALM      30.19S VSB 1
GRAND RAPIDS   LGT SNOW  27  24  89 W5        30.18R FOG     WCI  22
KALAMAZOO      LGT SNOW  28  24  85 W5        30.19R FOG     WCI  23
STURGIS*       CLOUDY    27  25  93 W3        30.18R
THREE RIVERS*  LGT SNOW  30  25  82 W7        30.20R WCI  23

$$
OHZ001>008-015>018-024>025-271500-
NORTHWEST OHIO

CITY           SKY/WX    TMP DP  RH WIND       PRES   REMARKS
DEFIANCE       CLOUDY    30  21  69 W3        30.20R
FINDLAY        LGT SNOW  30  24  78 NW9       30.17R WCI  22
TOLEDO EXPRESS CLOUDY    29  20  69 NW7       30.18R WCI  22
TOLEDO METCALF CLOUDY    30  22  72 W7        30.18R WCI  23
LIMA           LGT SNOW  30  23  75 NW12      30.18R WCI  20

$$
AND FOR LAKE MICHIGAN COASTAL AND OPEN LAKE BUOY OBSERVATIONS

STATION/POSITION TEMP    WIND        PRES    VSBY  WAVE
                 AIR SEA DIR/SP/G                  HT/PER
                 (F)     (DEG/KT/KT) (MB)    (MI)  (FT/S)
CALUMET HARBOR    25     260/  6/ 12 1024.0R
MICHIGAN CITY     30     300/ 20/ 22   N/A
SAINT JOSEPH      33     300/ 14/ 21 1023.7R
SOUTH LAKE BUOY   31 42  310/ 17/ 21 1023.7R         4/ 5

$$
&&



USA.gov is the U.S. government's official web portal to all federal, state and local government web resources and services.